Tracking 18186 objects as of 29-March-2017
HD Live streaming from Space Station
objects crossing your sky now

COSMOS 1241

Track COSMOS 1241 now!
10-day predictions
COSMOS 1241 is classified as:


NORAD ID: 12149
Int'l Code: 1981-006A
Perigee: 983.8 km
Apogee: 1,014.1 km
Inclination: 65.8 °
Period: 104.9 minutes
Semi major axis: 7369 km
RCS: 1.4995 m2 (large)
Launch date: January 21, 1981
Source: Commonwealth of Independent States (former USSR) (CIS)
Launch site: PLESETSK MISSILE AND SPACE COMPLEX (PKMTR)
Your satellite tracking list
Your tracking list is empty





NASA's NSSDC Master Catalog

Two Line Element Set (TLE):
1 12149U 81006A   17087.51910016 -.00000051 +00000-0 +31551-4 0  9994
2 12149 065.8227 134.7946 0020610 307.1442 152.9069 13.72163733812732
Source of the keplerian elements: AFSPC